星链-36942(STARLINK-36942)

导读

STARLINK-36942(NORAD编号68030)是SpaceX星链(Starlink)星座的一颗卫星,属于近地轨道宽带互联网卫星。星链星座通过大量低轨卫星组网,为全球提供高速低延迟的宽带网络服务,支持流媒体、在线办公等多场景应用。 作为SpaceX批量部署的星链卫星之一,该卫星采用紧凑平板设计,适配猎鹰火箭高密度发射。2026年SpaceX启动包括该卫星在内的4400颗星链卫星降轨计划,将轨道从550公里降至480公里,降低碰撞风险,减少太空碎片,提升太空运行安全性,应对近地轨道拥挤问题,践行太空可持续发展理念。

基本信息
目录编号:
68030
目录名称:
STARLINK-36942
国际标识:
2026-040R
轨道中心:
EARTH
卫星名称:
星链-36942
卫星全名:
星链-36942(STARLINK-36942)
卫星状态:
在轨 (已飞行194 天)
发射日期:
2026-03-01 UTC
国别 :
美国 (US)
星等 :
--
该卫星已列入 空间交会检测服务 Space Conjunction Data Service (SCDS) ,当前飞行风险评估等级: 无高风险
轨道信息
数据来源 国际轨道数据
星历时间: 2026-09-11T14:29:26+0800
11小时前
查看轨道信息
半长轴: 6843.715km
偏心率: 0.0001331
轨道倾角: 97.287°
近地点辐角 84.266°
升交点赤经 201.743°
平近点角 275.873°
近地点: 464.667km
远地点: 466.489km
周期: 93.907分钟
每日圈数: 15.334333
详细信息
固有亮度:
5
最大亮度:
2.5
卫星平台:
Starlink V1.0
覆盖范围:
全球
运营商:
太空探索技术公司
运营商所在国:
美国
制造商(研发单位):
太空探索技术公司
制造商所在国:
美国
使用方式:
暂无
卫星简介
Starlink 计划是 SpaceX 推出的全球卫星互联网项目,通过发射低轨道卫星,为全球尤其是偏远地区提供高速、低延迟的互联网服务。自 2019 年起,Starlink 已部署数千颗卫星,旨在缩小全球数字鸿沟,推动互联网普及。该项目还为军事、航空等行业提供通信支持,带来广泛经济效益。
2D轨道图
3D轨道图
轨道高度分析图
轨道倾角分析图
轨道综合分析图
查看轨道综合分析图
交会数据列表
事件ID 空间交会对象 最接近时刻(TCA) 交会距离 交会风险概率(CRP) 交会风险指数(CRI) 操作
CDM_260913-174806-803006-839521
2026-09-13T
17:48:56+0000
2.391 km
极远距离
1.926426E-6 低风险 0.41
CDM_260912-234805-984806-803021
2026-09-12T
23:48:18+0000
2.287 km
极远距离
1.743009E-6 低风险 0.4
CDM_260913-174605-357006-803021
2026-09-13T
17:46:57+0000
2.404 km
极远距离
1.473979E-6 低风险 0.38
CDM_260913-161406-803006-839521
2026-09-13T
16:14:58+0000
2.944 km
极远距离
1.381801E-6 低风险 0.38
CDM_260907-002805-196506-803021
2026-09-07T
00:28:06+0000
2.569 km
极远距离
1.338847E-6 低风险 0.38
CDM_260912-082305-173806-803021
2026-09-12T
08:23:54+0000
2.898 km
极远距离
8.379218E-7 极低风险 0.33
与全量物体交会距离演化趋势
与全量物体交会风险概率演化趋势